Location: Newark
(56.9167°N, 48.7972°E)
Time: 23:59:52
(UTC+00:00)

OTV 5 (USA 277) - Visible Passes

Search period start: 23 August 2019 00:00
Search period end: 02 September 2019 00:00
Orbit: 305 x 329 km, 54.5° (Epoch: 20 August)

Date Brightness Start Highest point End Pass type
(mag) Time Alt. Az. Time Alt. Az. Time Alt. Az.
25 Aug ? 18:17:05 10° SW 18:17:25 12° SW 18:17:25 12° SW visible
26 Aug ? 16:58:18 10° S 17:00:04 16° SSE 17:01:10 13° ESE visible
26 Aug ? 18:31:21 10° WSW 18:32:05 16° SW 18:32:05 16° SW visible
27 Aug ? 17:12:06 10° SW 17:14:24 25° SSE 17:15:33 18° ESE visible
27 Aug ? 18:45:47 10° WSW 18:46:27 16° WSW 18:46:27 16° WSW visible
28 Aug ? 17:26:17 10° SW 17:28:49 35° SSE 17:29:43 26° ESE visible
28 Aug ? 19:00:16 10° W 19:00:36 13° WSW 19:00:36 13° WSW visible
29 Aug ? 17:40:39 10° WSW 17:43:16 46° S 17:43:45 39° SE visible
30 Aug ? 17:55:07 10° WSW 17:57:42 50° S 17:57:42 50° S visible
31 Aug ? 16:35:34 10° WSW 16:38:09 41° SSE 16:40:42 10° E visible
31 Aug ? 18:09:38 10° W 18:11:36 36° SW 18:11:36 36° SW visible
01 Sep ? 16:49:58 10° WSW 16:52:37 49° S 16:54:35 16° ESE visible
01 Sep ? 18:24:11 10° W 18:25:27 22° WSW 18:25:27 22° WSW visible
